This is the latest recevied weather packets stored in our database for station/object HB9TJM-8. If no packets are shown the sender has not sent any weather packets the latest 1 day(s).
| Time | Temp. | Humidity | Pressure | Rain* | Wind** | Luminosity | Snow |
|---|---|---|---|---|---|---|---|
| 1778015107 | 8.33° C | 86% | 1011.2 hPa | 0 mm | 1.34 m/s, 64° | 0 W/m² | - |
| 1778014800 | 8.33° C | 88% | 1011.5 hPa | 0 mm | 0.89 m/s, 327° | 0 W/m² | - |
| 1778014492 | 8.33° C | 86% | 1011.4 hPa | 0 mm | 2.24 m/s, 9° | 0 W/m² | - |
| 1778014185 | 8.33° C | 88% | 1011.5 hPa | 0 mm | 1.34 m/s, 2° | 0 W/m² | - |
| 1778013878 | 8.33° C | 90% | 1011.4 hPa | 0 mm | 0.89 m/s, 344° | 0 W/m² | - |
| 1778013570 | 8.33° C | 88% | 1011.5 hPa | 0 mm | 0.89 m/s, 0° | 0 W/m² | - |
| 1778013263 | 8.33° C | 89% | 1011.8 hPa | 0 mm | 0 m/s | 0 W/m² | - |
| 1778012956 | 8.33° C | 90% | 1011.6 hPa | 0 mm | 0.89 m/s, 351° | 0 W/m² | - |
| 1778012648 | 8.33° C | 90% | 1011 hPa | 0 mm | 0.89 m/s, 116° | 0 W/m² | - |
| 1778012340 | 8.33° C | 91% | 1011.9 hPa | 0 mm | 0.45 m/s, 320° | 0 W/m² | - |
| 1778012032 | 8.33° C | 90% | 1011.2 hPa | 0 mm | 0 m/s | 0 W/m² | - |
| 1778011725 | 8.89° C | 86% | 1011.4 hPa | 0 mm | 0.45 m/s, 52° | 0 W/m² | - |
| 1778011417 | 8.89° C | 86% | 1011 hPa | 0 mm | 1.34 m/s, 24° | 0 W/m² | - |
| 1778011109 | 8.89° C | 85% | 1010.5 hPa | 0 mm | 0.45 m/s, 353° | 0 W/m² | - |
| 1778010802 | 8.33° C | 88% | 1010.7 hPa | 0 mm | 1.79 m/s, 311° | 0 W/m² | - |
| 1778010494 | 8.33° C | 90% | 1011.1 hPa | 0 mm | 1.34 m/s, 92° | 0 W/m² | - |
| 1778010187 | 8.33° C | 92% | 1011.3 hPa | 0 mm | 0 m/s | 0 W/m² | - |
| 1778009879 | 8.33° C | 91% | 1011.2 hPa | 0 mm | 0.45 m/s, 19° | 0 W/m² | - |
| 1778009571 | 8.33° C | 91% | 1010.9 hPa | 0 mm | 1.79 m/s, 314° | 0 W/m² | - |
| 1778009264 | 8.33° C | 93% | 1011 hPa | 0 mm | 0 m/s | 0 W/m² | - |
| 1778008956 | 8.33° C | 92% | 1010.6 hPa | 0 mm | 0.89 m/s, 224° | 0 W/m² | - |
| 1778008648 | 8.33° C | 92% | 1010.6 hPa | 0 mm | 1.79 m/s, 220° | 0 W/m² | - |
| 1778008341 | 8.33° C | 91% | 1010.8 hPa | 0 mm | 1.34 m/s, 126° | 0 W/m² | - |
| 1778008033 | 8.33° C | 90% | 1010.7 hPa | 0 mm | 1.79 m/s, 32° | 0 W/m² | - |
| 1778007725 | 8.89° C | 89% | 1010.8 hPa | 0 mm | 0.89 m/s, 35° | 0 W/m² | - |
* Rain latest hour (hover to see other rain measurements)
** Current wind speed in m/s (hover to see current wind gust speed)